Location: Unspecified
(41.5000°N, 0.0000°E)
Time: 23:18:13
(UTC+00:00)

Vanguard 2 Rocket - Visible Passes

Search period start: 18 June 2019 00:00
Search period end: 28 June 2019 00:00
Orbit: 554 x 3326 km, 32.9° (Epoch: 17 June)

Date Brightness Start Highest point End Pass type
(mag) Time Alt. Az. Time Alt. Az. Time Alt. Az.
18 Jun 9.3 01:25:23 10° W 01:39:43 63° S 01:59:35 10° ESE visible
18 Jun 9.8 03:40:22 10° W 03:56:57 48° SSW 04:15:20 10° SE visible
18 Jun 9.2 20:05:33 10° SSE 20:10:32 16° SE 20:17:04 10° E visible
18 Jun 8.7 22:13:39 10° SW 22:22:55 46° SSE 22:38:15 10° E visible
19 Jun 9.0 00:25:41 10° WSW 00:38:14 63° S 00:57:26 10° ESE visible
19 Jun 9.5 02:39:44 10° W 02:55:15 54° SSW 03:14:35 10° SE visible
19 Jun 8.7 21:15:21 10° SSW 21:23:03 35° SSE 21:35:27 10° E visible
19 Jun 8.8 23:26:22 10° WSW 23:37:12 59° S 23:54:58 10° E visible
20 Jun 9.3 01:39:34 10° W 01:53:37 59° SSW 02:13:10 10° ESE visible
20 Jun 8.8 20:17:41 10° S 20:23:41 24° SE 20:32:29 10° E visible
20 Jun 8.6 22:27:25 10° SW 22:36:38 53° SSE 22:52:19 10° E visible
21 Jun 9.0 00:39:50 10° W 00:52:12 61° S 01:11:11 10° ESE visible
21 Jun 9.6 02:54:05 10° W 03:08:57 46° SSW 03:27:32 10° SE visible
21 Jun 8.5 21:28:51 10° SW 21:36:36 43° SSE 21:49:42 10° E visible
21 Jun 8.8 23:40:27 10° WSW 23:51:08 60° S 00:08:50 10° ESE visible
22 Jun 9.3 01:53:51 10° W 02:07:29 52° SSW 02:26:25 10° SE visible
22 Jun 8.5 20:30:43 10° SSW 20:37:04 31° SSE 20:47:08 10° E visible
22 Jun 8.5 22:41:25 10° WSW 22:50:32 57° S 23:06:18 10° E visible
23 Jun 9.1 00:54:04 10° W 01:06:10 56° S 01:24:42 10° ESE visible
23 Jun 9.8 03:08:42 10° W 03:22:37 37° SSW 03:39:52 10° SSE visible
23 Jun 8.3 21:42:40 10° SW 21:50:23 49° SSE 22:03:47 10° E visible
23 Jun 8.8 23:54:39 10° W 00:05:10 58° S 00:22:32 10° ESE visible
24 Jun 9.4 02:08:17 10° W 02:21:18 43° SSW 02:39:12 10° SE visible
24 Jun 8.2 20:44:15 10° SW 20:50:41 39° SSE 21:01:27 10° E visible
24 Jun 8.5 22:55:32 10° WSW 23:04:32 57° S 23:20:09 10° ESE visible
25 Jun 9.1 01:08:24 10° W 01:20:07 48° SSW 01:37:51 10° SE visible
25 Jun 9.9 03:23:49 10° W 03:36:14 28° SSW 03:51:23 10° SSE visible
25 Jun 8.2 21:56:41 10° WSW 22:04:19 53° S 22:17:46 10° E visible
26 Jun 8.8 00:08:55 10° W 00:19:11 52° S 00:36:00 10° ESE visible
26 Jun 9.6 02:23:01 10° W 02:35:06 34° SSW 02:51:22 10° SSE visible
26 Jun 8.0 20:58:07 10° SW 21:04:31 45° SSE 21:15:34 10° E visible
26 Jun 8.5 23:09:45 10° WSW 23:18:36 54° S 23:33:51 10° ESE visible
27 Jun 9.2 01:22:55 10° W 01:34:03 39° SSW 01:50:30 10° SE visible
27 Jun 10.1 03:40:00 10° WSW 03:49:53 19° SW 04:01:31 10° S visible
27 Jun 8.0 19:59:48 10° SW 20:05:07 34° SSE 20:13:37 10° E visible
27 Jun 8.2 22:10:51 10° WSW 22:18:22 53° S 22:31:38 10° ESE visible
